Fairbanks, AK

10:21 PM AKST on December 09, 2019 (GMT -0900)
Fairbanks International

Weather History for PAFA - May, 2019

Change the Weather History Date:

Tuesday, May 28, 2019

  Actual Average Record
Temperature  
Mean Temperature 57 °F 54 °F  
Max Temperature 66 °F 66 °F 90 °F (1947)
Min Temperature 47 °F 43 °F 30 °F (1934)
Degree Days  
Heating Degree Days 8 11  
Month to date heating degree days 323 455  
Since 1 July heating degree days 11585 13479  
Cooling Degree Days 0 0  
Month to date cooling degree days 1 0  
Year to date cooling degree days 1 0  
Growing Degree Days 7 (Base 50)    
Moisture  
Dew Point 41 °F    
Average Humidity 60    
Maximum Humidity 83    
Minimum Humidity 25    
Precipitation  
Precipitation 0.02 in 0.03 in 0.35 in (2007)
Month to date precipitation 0.70 0.53  
Year to date precipitation 3.18 2.09  
Snow  
Snow 0.00 in 0.00 in T in (1934)
Month to date snowfall T 0.9  
Since 1 July snowfall 57.5 65.0  
Snow Depth 0.00 in    
Sea Level Pressure  
Sea Level Pressure 29.94 in    
Wind  
Wind Speed 4 mph (WNW)    
Max Wind Speed 15 mph    
Max Gust Speed -    
Visibility 10 miles    
Events Rain    
T = Trace of Precipitation, MM = Missing Value Source: NWS Daily Summary

Daily Weather History Graph

Daily Weather History Graph

Search for Another Location

Airport or City:

Astronomy

May. 28, 2019 Rise Set
Actual Time 3:45 AM AKDT 11:54 PM AKDT
Civil Twilight 2:21 AM AKDT Sun does not rise
Nautical Twilight Sun does not rise Sun does not rise
Astronomical Twilight Sun does not rise Sun does not rise
Moon 4:13 AM AKDT (5/28) 3:10 PM AKDT (5/28)
Length of Visible Light 24h 00m
Length of Day
20h 08m
Waning Crescent, 30% of the Moon is Illuminated
May 28
Waning Crescent
Jun 3
New
Jun 9
First Quarter
Jun 17
Full
Jun 25
Last Quarter

Hourly Weather History & Observations

Time (AKDT) Temp. Dew Point Humidity Pressure Visibility Wind Dir Wind Speed Gust Speed Precip Events Conditions
12:53 AM 53.1 °F 37.0 °F 55% 29.88 in 10.0 mi North 4.6 mph - N/A   Mostly Cloudy
1:53 AM 50.0 °F 39.0 °F 66% 29.89 in 10.0 mi NNW 3.5 mph - N/A   Mostly Cloudy
2:53 AM 50.0 °F 39.9 °F 68% 29.89 in 10.0 mi Calm Calm - N/A   Mostly Cloudy
3:53 AM 48.9 °F 41.0 °F 74% 29.90 in 10.0 mi SSE 6.9 mph - N/A   Mostly Cloudy
4:53 AM 48.9 °F 41.0 °F 74% 29.92 in 10.0 mi Calm Calm - N/A   Mostly Cloudy
5:53 AM 48.9 °F 42.1 °F 77% 29.92 in 10.0 mi Calm Calm - N/A   Mostly Cloudy
6:53 AM 48.9 °F 43.0 °F 80% 29.93 in 9.0 mi Calm Calm - 0.00 in Rain Light Rain
7:53 AM 48.9 °F 43.0 °F 80% 29.94 in 10.0 mi South 3.5 mph - 0.01 in Rain Light Rain
8:53 AM 50.0 °F 45.0 °F 83% 29.96 in 10.0 mi South 6.9 mph - 0.00 in Rain Light Rain
9:53 AM 52.0 °F 44.1 °F 74% 29.96 in 10.0 mi Variable 3.5 mph - 0.00 in Rain Light Rain
10:53 AM 53.1 °F 44.1 °F 71% 29.98 in 10.0 mi West 9.2 mph - 0.00 in Rain Light Rain
11:53 AM 54.0 °F 44.1 °F 69% 29.98 in 10.0 mi SW 5.8 mph - 0.00 in Rain Light Rain
12:53 PM 59.0 °F 44.1 °F 58% 29.97 in 10.0 mi WSW 5.8 mph - 0.01 in   Mostly Cloudy
1:53 PM 61.0 °F 37.0 °F 41% 29.96 in 10.0 mi Calm Calm - N/A   Mostly Cloudy
2:53 PM 62.1 °F 37.9 °F 41% 29.95 in 10.0 mi Calm Calm - N/A   Mostly Cloudy
3:53 PM 64.0 °F 37.0 °F 37% 29.94 in 10.0 mi Calm Calm - N/A   Mostly Cloudy
4:53 PM 59.0 °F 37.9 °F 46% 29.95 in 10.0 mi NNE 15.0 mph - N/A   Mostly Cloudy
5:53 PM 59.0 °F 41.0 °F 51% 29.95 in 10.0 mi NNW 10.4 mph - 0.00 in Rain Light Rain
6:53 PM 62.1 °F 39.9 °F 44% 29.94 in 10.0 mi North 6.9 mph - 0.00 in   Mostly Cloudy
7:53 PM 61.0 °F 39.0 °F 44% 29.94 in 10.0 mi NE 4.6 mph - N/A   Mostly Cloudy
8:53 PM 61.0 °F 41.0 °F 48% 29.94 in 10.0 mi Calm Calm - N/A   Mostly Cloudy
9:53 PM 57.9 °F 43.0 °F 58% 29.95 in 10.0 mi Calm Calm - N/A   Mostly Cloudy
10:53 PM 55.0 °F 43.0 °F 64% 29.96 in 10.0 mi Calm Calm - N/A   Mostly Cloudy
11:53 PM 51.1 °F 45.0 °F 80% 29.96 in 10.0 mi Calm Calm - N/A   Mostly Cloudy